Location: Benque
(43.2594°N, 0.9178°E)
Time: 21:59:29
(UTC+00:00)

Cosmos 2251 Rocket - Pass Details

Date: 24 January 2020
Orbit: 764 x 792 km, 74.0° (Epoch: 19 February)

Event Time Altitude Azimuth Distance (km) Brightness Sun altitude
Rises 17:43:05 0° 347° (NNW) 3,261 6.7 -8.6°
Reaches altitude 10° 17:45:43 10° 358° (N) 2,334 5.9 -9.1°
Maximum altitude 17:50:27 32° 61° (ENE) 1,322 4.2 -9.9°
Drops below altitude 10° 17:55:10 10° 123° (ESE) 2,338 5.6 -10.7°
Sets 17:57:48 0° 134° (SE) 3,266 6.5 -11.2°
